Wind_Speed
24 24 25 26 26 26 25 24 23 23 23 23 22 21 21 20 20 19 18 18 17 16 15 14 13 12 12 11 10 9 9 8 8 7 6 5 5 5 4 3 2 2 3 4 4 4 6 7 7 8 9 9 9 9 9 9 10 12 12 13 14 13 13 13 14 14 14 14 14 14 12 10 8 7 6 7 6 7 8 9 11 14 14 13 12 10 11 15
25 25 25 25 26 27 27 26 25 24 24 23 23 23 22 22 21 20 19 19 18 17 16 15 14 13 13 12 11 11 10 10 10 9 8 7 6 6 6 5 4 3 3 3 4 5 5 6 7 7 7 8 8 8 8 8 9 10 11 11 12 12 13 13 13 14 14 14 14 15 13 11 9 7 6 6 5 6 9 9 12 14 14 14 13 12 12 13
27 26 26 26 26 26 27 28 27 26 25 24 23 23 23 22 22 22 21 20 19 18 17 16 16 15 14 13 13 12 12 11 11 10 10 9 8 7 8 7 6 5 4 4 4 5 4 4 5 6 6 7 7 7 7 7 7 8 9 9 11 13 13 13 13 13 14 14 14 14 14 12 10 8 7 6 5 4 7 9 11 13 14 14 13 13 12 10
27 27 27 27 26 26 26 27 28 28 27 26 25 24 23 22 22 22 22 22 21 20 19 18 17 16 15 15 14 14 13 13 13 13 12 11 10 9 9 8 7 6 5 5 4 4 4 4 4 5 5 6 6 6 6 6 6 6 7 7 10 12 12 13 13 14 14 14 14 14 14 13 12 10 7 6 5 3 6 8 8 10 13 14 13 12 11 9
28 28 27 27 27 27 26 27 27 28 28 28 26 25 24 23 22 22 22 22 22 21 20 20 19 18 18 17 16 16 16 16 16 15 14 13 12 11 11 10 9 8 7 6 5 4 4 3 3 4 4 5 5 4 5 5 5 5 6 7 9 10 12 13 13 14 14 14 14 13 13 13 13 11 9 7 6 5 5 8 6 8 11 12 12 11 10 9
28 28 28 28 27 27 27 27 27 27 28 29 28 27 26 24 23 22 21 22 22 21 21 21 20 20 19 19 19 18 17 17 16 16 15 14 13 12 12 11 10 9 8 7 6 5 4 3 3 3 3 4 3 2 3 4 4 5 5 6 8 9 11 13 13 13 14 14 14 14 13 13 13 12 10 7 6 5 6 7 6 8 9 10 10 10 11 11
28 28 28 28 28 27 27 27 27 27 27 28 29 29 28 26 25 23 22 21 21 21 20 20 20 20 19 19 18 17 17 16 15 15 14 14 14 13 13 12 12 11 9 8 6 5 4 3 2 2 3 3 3 1 1 2 3 4 4 4 6 8 10 12 13 13 14 14 15 15 14 13 12 12 12 9 5 3 5 6 7 8 8 9 9 9 12 12
27 27 27 28 28 27 27 27 27 27 27 27 28 29 29 28 27 25 23 22 21 20 20 20 19 19 18 18 17 16 15 14 13 13 13 14 14 14 14 13 14 12 10 9 7 5 4 3 2 2 2 3 2 1 1 2 2 3 3 3 5 8 10 12 13 13 13 14 15 15 15 14 13 12 12 11 7 3 1 3 5 6 7 8 8 9 11 11
28 27 27 27 27 27 27 27 27 27 27 27 27 28 29 29 28 27 25 23 22 21 20 19 19 18 18 17 16 15 14 13 12 12 12 13 14 14 14 14 14 13 12 10 7 6 5 4 2 1 2 3 2 2 2 2 1 1 2 3 4 7 9 10 12 12 13 14 15 15 14 15 14 13 12 11 10 6 2 1 4 6 7 7 7 9 10 10
28 27 27 27 27 27 27 27 27 27 27 27 27 27 27 28 29 29 27 25 23 22 20 19 19 19 18 17 16 15 14 13 12 12 12 13 14 15 15 14 14 13 12 10 7 6 5 4 2 1 1 2 2 2 3 2 1 0 1 2 3 5 7 9 11 11 11 12 13 13 13 14 15 14 13 12 11 9 5 2 3 5 8 8 7 9 10 10
28 27 27 27 27 27 27 27 27 27 27 27 27 27 27 27 28 29 29 27 25 23 21 20 19 18 18 18 17 16 15 14 13 12 12 12 13 14 14 14 14 12 11 9 8 7 5 4 2 1 0 1 2 2 3 3 2 1 1 1 2 4 6 7 9 11 10 10 11 12 11 13 14 14 15 14 12 11 8 5 4 6 8 8 8 9 9 10
28 28 28 27 27 27 26 26 27 27 27 27 27 27 27 27 27 27 28 28 27 25 23 21 19 18 19 18 17 16 16 15 14 13 12 12 13 15 15 14 14 12 11 9 8 7 5 5 3 2 1 1 2 2 3 3 4 3 1 0 2 4 5 6 8 9 9 9 10 10 9 10 13 14 16 15 13 12 10 7 5 7 9 9 10 10 10 11
28 28 28 28 27 27 26 26 26 26 26 26 26 26 26 26 26 26 27 28 28 27 25 23 21 20 19 18 18 18 17 16 15 14 13 13 14 15 16 16 14 13 12 11 10 8 7 7 5 3 2 1 2 2 3 4 4 3 2 1 2 4 5 5 7 8 8 8 9 8 7 9 12 13 15 15 15 13 12 10 6 7 10 11 11 11 12 13
29 29 28 28 28 27 27 26 26 26 26 26 26 26 26 26 26 26 26 26 28 28 27 25 23 21 20 19 19 19 18 17 16 15 15 14 14 15 15 16 14 13 13 12 11 10 9 8 6 4 3 3 2 3 5 5 4 4 3 2 2 4 5 4 6 8 8 7 8 9 9 10 11 12 14 15 15 15 13 12 9 6 11 13 13 13 13 15
29 29 29 28 28 27 27 26 25 26 25 25 25 25 25 25 25 25 25 25 26 28 29 28 25 23 22 21 20 19 19 18 17 16 16 15 15 14 15 14 14 13 13 13 12 11 10 9 7 6 5 4 4 5 6 6 5 4 4 4 4 5 5 5 6 8 8 7 7 9 10 11 12 12 14 15 16 16 14 13 11 7 9 14 15 15 15 16
28 29 29 28 28 27 27 26 25 25 25 24 24 24 24 24 24 24 24 25 25 26 27 29 28 26 25 23 21 20 19 18 17 17 16 16 16 15 15 14 13 13 13 13 13 12 11 10 8 8 7 6 6 7 7 6 6 6 6 7 7 6 5 5 7 8 8 7 6 8 9 11 12 12 13 15 16 16 15 14 13 9 7 14 17 17 17 17
27 28 28 28 28 27 27 26 25 25 25 24 24 23 23 23 23 24 24 24 25 25 25 27 28 29 28 26 24 22 20 19 18 18 18 17 17 16 16 15 14 13 13 13 14 14 12 11 10 9 9 8 8 9 9 7 8 8 8 9 8 7 6 7 8 8 7 6 5 7 9 10 11 11 13 15 17 17 16 15 13 11 8 12 18 18 19 17
26 27 27 28 27 27 26 26 25 24 24 24 23 23 23 23 23 23 23 24 24 24 24 25 26 28 29 29 27 24 22 21 20 19 19 18 18 17 17 16 15 14 15 15 16 16 14 13 12 11 11 12 12 12 11 9 8 9 9 10 10 8 7 8 9 9 8 5 5 7 8 9 10 11 12 14 16 17 17 16 14 11 8 9 17 19 19 18
25 26 26 26 26 26 25 25 24 24 24 23 23 22 22 22 22 23 23 23 24 24 24 25 25 26 28 29 28 27 26 24 22 21 21 20 20 19 18 18 17 16 17 17 18 18 17 15 14 15 15 15 15 14 12 10 9 9 9 10 11 9 9 10 10 10 9 6 5 7 9 9 10 10 12 13 15 17 17 16 14 12 9 4 14 18 19 19
24 24 25 25 25 24 23 23 22 22 22 22 22 22 22 22 22 22 22 23 23 23 24 25 25 25 26 27 28 29 28 28 26 25 23 22 21 21 20 19 19 19 19 20 21 20 19 18 18 19 20 19 17 16 13 11 11 10 10 11 12 10 10 11 11 11 9 6 6 7 9 9 9 10 12 13 14 16 16 16 14 12 10 3 9 16 19 19
22 23 23 23 22 21 21 20 20 21 21 21 21 22 22 21 21 21 21 22 22 23 24 24 24 24 24 25 26 27 28 29 28 27 26 25 24 23 22 21 21 21 22 22 23 22 21 21 22 23 23 21 19 17 14 12 11 11 11 12 13 12 12 12 11 11 9 6 6 7 9 9 9 11 12 12 13 15 15 15 13 12 10 6 5 13 19 20
20 21 21 21 20 19 18 18 18 19 19 20 21 21 21 20 20 20 20 21 22 23 24 24 24 23 24 24 24 25 26 27 28 28 28 27 27 26 25 24 24 24 24 24 25 25 24 24 26 26 24 22 21 18 14 12 11 11 12 13 14 14 13 12 11 11 8 5 6 7 8 8 8 10 11 11 13 14 14 13 13 12 10 7 5 8 18 21
19 19 20 19 18 16 16 16 16 17 17 18 19 19 19 18 18 19 19 20 21 22 22 23 23 23 23 23 23 23 24 25 26 27 27 28 27 27 26 26 26 26 26 26 27 26 26 28 29 27 25 23 21 18 14 13 13 12 13 16 17 16 14 12 11 10 8 6 5 7 9 9 8 9 10 11 12 13 13 13 12 12 11 8 6 4 12 20
17 18 18 18 17 16 16 16 16 15 16 17 17 17 16 16 17 17 18 19 20 21 21 22 23 23 22 22 22 22 22 22 23 24 25 25 25 26 26 27 26 26 26 26 27 27 28 30 29 25 24 22 20 17 14 14 14 13 15 18 19 16 14 12 10 9 8 6 6 7 9 9 7 7 9 9 10 12 13 12 12 11 11 10 6 3 5 13
15 16 17 17 17 17 17 16 15 15 16 16 15 14 14 15 16 16 17 18 19 20 21 22 22 22 22 22 22 21 21 21 22 22 22 22 23 24 24 24 25 25 24 24 25 26 28 28 26 24 22 20 18 16 15 15 15 15 18 20 18 16 14 11 10 10 9 7 7 7 8 9 7 6 7 8 8 10 11 12 12 11 10 10 9 6 3 5
15 15 16 17 18 18 18 17 15 15 15 14 13 12 13 14 15 15 16 17 18 20 20 20 20 20 21 21 21 22 22 22 22 22 21 21 21 20 21 22 22 22 21 22 23 24 26 25 22 21 20 18 16 15 16 17 16 18 20 19 17 15 13 11 10 10 9 8 9 8 7 9 9 6 6 6 7 8 10 11 12 11 9 9 9 8 5 3
15 15 16 17 18 18 18 17 16 15 15 13 12 12 13 13 14 14 15 16 17 19 20 19 19 19 20 20 20 21 21 21 22 21 20 19 19 19 20 20 20 20 21 21 21 23 25 23 20 20 18 16 16 18 19 18 19 20 19 17 17 15 13 11 10 9 10 8 9 8 7 8 10 8 6 6 6 7 8 10 11 10 8 8 8 8 8 6
15 16 17 18 18 18 18 17 17 16 14 13 12 13 13 13 13 14 15 17 17 17 18 18 18 18 19 19 20 19 19 20 21 20 19 19 19 19 20 20 21 20 21 21 22 24 24 22 21 18 16 17 19 21 20 19 20 20 17 16 17 15 13 11 10 9 8 7 8 9 7 7 10 9 6 5 4 5 7 8 9 9 7 7 7 7 8 8
14 17 18 19 19 19 18 18 17 16 15 14 13 13 14 13 14 14 16 17 17 17 17 17 17 18 18 18 19 19 19 19 18 18 18 18 19 19 19 20 20 20 20 21 24 25 23 21 19 16 16 19 21 20 18 19 20 18 16 16 16 15 13 11 10 9 8 7 9 8 7 7 9 8 6 4 4 4 5 6 7 8 7 7 7 7 7 7
12 15 17 19 19 19 19 18 18 17 16 15 14 14 14 14 14 15 16 17 16 16 17 16 17 17 17 17 18 19 18 17 16 16 17 17 18 19 19 19 18 18 19 20 22 23 20 17 15 15 16 19 21 19 18 19 19 17 15 15 15 14 13 12 11 10 9 9 9 8 8 8 8 7 5 3 3 4 5 6 6 7 7 7 6 6 7 7
10 12 15 17 19 19 19 19 18 17 16 16 15 15 15 15 15 16 17 17 16 16 16 16 16 17 17 17 18 18 17 16 16 17 17 17 17 17 17 17 17 17 17 18 20 21 17 14 14 15 18 21 21 18 17 19 18 16 16 16 14 13 14 12 11 11 10 9 8 8 8 8 8 7 5 3 3 5 6 6 6 7 7 6 7 6 6 7
8 10 13 15 17 18 19 19 18 17 17 17 16 16 16 16 16 16 16 16 16 16 16 16 17 17 17 17 17 17 17 17 17 17 17 16 16 16 16 17 16 16 18 19 19 17 14 14 16 17 20 22 20 18 18 17 17 17 16 16 14 12 12 11 11 11 10 9 8 8 8 8 7 6 4 2 3 4 6 6 6 6 6 6 6 6 6 6
7 9 11 13 15 17 18 18 18 18 17 17 17 17 17 16 16 17 16 16 16 15 15 16 17 17 17 16 16 16 16 16 15 15 15 14 14 15 15 16 17 18 18 18 16 14 14 16 18 20 21 21 19 18 15 10 14 17 15 15 14 10 11 11 11 11 9 9 9 8 9 8 5 4 3 1 2 4 5 5 6 6 6 6 6 6 6 6
7 9 11 13 15 16 17 17 18 18 17 17 17 16 16 15 15 15 15 15 14 13 14 15 15 15 15 15 15 14 14 14 13 12 12 13 13 13 13 13 16 17 16 16 15 15 16 15 16 20 20 19 18 18 18 12 11 13 14 16 14 10 12 12 11 11 9 9 10 9 10 8 5 4 2 1 2 3 3 4 5 4 5 5 5 5 6 6
7 9 12 14 16 17 17 17 17 17 16 16 15 15 14 14 14 15 14 14 13 12 13 14 14 14 14 13 13 13 13 12 12 12 11 12 12 13 13 13 14 15 15 15 14 16 19 16 18 22 20 18 18 19 22 16 8 10 15 16 13 11 14 13 11 11 10 9 9 10 9 8 7 5 2 1 3 4 3 3 3 3 3 4 4 5 5 6
8 11 14 16 17 17 17 16 16 15 15 14 15 15 14 13 14 14 13 14 13 13 14 14 14 14 13 12 12 11 11 11 11 11 11 11 11 12 13 12 13 13 14 15 15 17 19 16 17 21 19 19 20 19 20 17 11 12 12 12 14 15 15 15 13 12 10 9 9 11 10 7 7 7 5 4 4 3 3 2 2 3 3 3 4 4 4 5
10 13 16 17 18 17 16 16 15 15 15 15 15 15 14 14 15 15 15 15 15 15 15 15 14 14 14 13 11 10 11 11 11 11 11 11 11 12 12 12 12 12 13 15 17 20 21 14 14 20 20 19 21 18 18 19 17 13 8 9 16 15 14 15 13 12 11 10 9 11 10 7 6 7 7 7 4 2 3 3 2 2 3 4 3 3 3 4
12 15 17 17 17 16 16 16 16 17 18 18 17 17 17 18 18 17 17 17 16 15 16 16 15 14 15 14 12 11 11 11 11 11 11 11 11 12 12 12 12 12 13 15 17 20 20 13 13 21 21 19 21 19 17 19 20 17 13 13 13 11 13 15 14 13 12 10 10 11 12 8 6 7 9 6 3 1 3 4 3 3 3 4 4 4 4 5
13 15 16 16 16 16 17 18 19 20 20 21 21 21 21 20 19 18 17 17 16 16 16 16 16 15 15 15 14 12 11 11 10 10 10 10 10 11 11 12 13 12 11 14 16 19 21 15 11 19 21 18 20 18 14 15 18 18 18 15 13 12 13 14 15 16 14 11 12 13 12 10 8 7 7 5 3 2 3 5 5 4 4 5 5 6 6 6
14 15 16 16 17 18 20 20 21 23 24 24 23 22 21 20 18 18 17 16 16 16 15 16 16 16 15 15 14 12 11 10 10 8 8 8 8 9 10 11 12 11 11 14 17 20 23 19 11 14 19 15 14 14 11 11 12 14 15 13 12 12 12 13 15 17 17 14 13 14 12 10 8 5 3 4 4 2 3 5 5 5 5 6 6 7 7 8
16 17 18 18 19 20 21 22 25 27 26 24 23 22 20 19 17 16 16 15 14 14 13 14 15 15 14 14 13 11 10 9 8 6 5 5 6 7 9 11 11 12 12 13 17 20 22 22 15 11 15 12 9 12 12 9 8 9 11 13 13 13 14 14 13 15 17 15 13 14 12 10 9 8 4 5 4 1 4 5 6 6 6 7 8 8 9 9
17 19 20 21 21 21 23 26 28 27 24 23 22 20 18 17 17 15 14 14 13 13 13 14 14 14 13 12 10 9 7 6 5 4 4 4 4 4 7 10 12 14 14 14 18 20 20 21 18 13 13 11 8 9 10 9 8 7 10 14 15 14 14 13 11 13 15 13 11 12 12 11 9 8 6 6 4 4 5 5 6 8 8 9 9 9 9 10
19 21 22 22 22 23 26 28 28 26 23 22 20 19 18 17 16 15 14 14 13 13 13 13 13 12 12 10 8 7 7 8 7 6 7 7 6 6 7 8 10 13 15 17 19 19 18 19 17 13 12 11 9 9 8 8 8 9 12 14 14 12 12 12 11 12 13 12 11 11 12 11 8 8 7 6 6 6 6 6 6 8 9 10 11 10 10 10
21 22 23 24 25 26 28 28 27 25 22 20 19 19 18 17 16 15 15 14 13 13 12 12 11 10 10 8 7 7 7 8 9 9 10 11 11 11 10 9 9 9 11 14 16 15 16 17 16 13 12 11 10 10 10 9 10 12 12 12 12 12 11 11 11 12 14 15 13 11 11 11 9 9 8 6 7 7 7 7 8 8 10 12 13 13 12 11
23 24 24 25 26 27 27 26 25 23 21 19 18 18 17 16 16 15 15 14 13 12 11 11 10 9 9 8 7 7 6 5 8 10 11 12 12 13 12 10 9 7 8 12 12 12 14 15 15 14 12 12 11 11 12 12 12 13 11 10 13 13 12 12 12 13 14 15 13 11 12 12 9 8 7 6 7 8 8 9 9 10 11 13 14 15 14 13
24 25 25 25 26 26 25 25 23 21 19 18 17 17 16 16 15 15 14 13 13 12 12 11 10 10 11 11 10 8 5 4 6 7 8 9 11 11 11 11 8 6 7 9 8 10 13 13 14 15 12 12 12 11 10 10 10 11 11 11 13 13 13 14 13 13 13 13 13 11 10 11 9 5 4 6 8 9 10 11 12 12 12 14 16 16 16 15
24 26 25 25 24 23 23 23 22 20 19 17 16 16 15 15 14 14 13 12 12 13 13 11 10 11 12 13 11 8 6 7 7 6 7 8 10 10 10 9 8 7 9 7 5 8 13 13 14 16 15 13 11 8 9 10 10 9 9 9 11 11 13 15 14 11 10 12 13 8 6 9 7 3 4 7 9 11 12 14 14 13 13 14 16 17 17 16
24 26 26 25 23 22 21 21 20 19 18 16 15 15 14 14 13 13 12 12 12 13 13 12 11 11 12 12 11 8 7 9 9 8 8 9 10 10 9 9 8 7 8 6 4 6 12 14 14 16 17 16 13 10 11 13 13 10 9 9 11 11 12 15 14 9 6 6 7 6 7 11 7 5 7 9 11 12 14 16 15 14 14 15 16 17 17 17
24 26 26 25 23 22 21 19 17 16 15 14 14 14 14 13 12 11 11 11 11 13 14 12 12 12 11 11 11 9 9 10 10 10 10 9 9 10 9 9 9 6 5 4 3 4 9 11 12 15 18 18 17 16 17 17 16 15 14 14 13 12 13 15 14 9 6 5 4 6 10 11 9 8 10 11 13 14 16 17 16 15 14 15 16 17 18 18
24 26 26 26 24 23 21 18 16 15 14 13 13 13 14 13 11 9 9 8 9 10 12 12 12 12 12 12 11 9 8 8 8 8 8 8 8 7 7 8 8 8 7 5 3 5 7 7 9 14 17 18 20 19 20 21 20 19 19 18 16 15 15 15 14 11 9 9 8 9 12 13 12 13 14 15 17 17 18 18 18 17 16 16 16 17 17 18
24 26 27 27 26 24 22 20 17 15 13 13 13 13 13 13 11 10 8 8 7 7 8 9 9 11 10 9 8 8 7 6 6 7 8 7 8 8 8 8 9 8 8 7 6 6 7 6 7 11 13 15 17 20 21 23 23 23 22 21 18 17 16 16 16 15 14 13 13 14 14 14 14 15 17 18 18 18 19 19 19 19 19 18 17 17 17 18
24 25 26 27 26 25 24 21 19 16 14 13 13 13 13 13 12 11 9 8 7 7 7 6 7 8 8 6 7 7 8 8 7 8 9 9 10 11 11 11 12 11 9 8 8 7 7 6 6 8 10 11 14 18 23 24 25 25 23 21 18 17 17 18 17 17 18 19 19 18 16 13 13 15 16 16 16 17 18 20 20 21 20 19 19 19 19 19
Wind_Direction
256 255 254 252 252 251 250 250 250 249 249 248 248 248 249 250 250 250 250 251 252 252 253 254 255 257 259 260 260 257 253 252 257 265 277 294 291 266 255 239 215 161 126 107 95 81 64 58 52 48 54 62 65 63 56 44 36 32 33 41 38 30 33 39 45 49 49 47 50 52 52 58 69 73 69 73 90 125 146 154 158 161 163 160 158 169 176 171
256 255 254 253 252 251 250 250 249 249 250 249 249 248 248 249 250 250 250 250 250 251 252 252 252 253 253 255 256 255 253 252 255 261 267 279 283 264 248 235 215 192 154 130 113 97 76 63 58 52 53 62 67 68 62 48 41 32 31 38 27 20 27 33 40 45 47 47 46 49 50 53 60 66 71 72 87 134 153 156 161 165 166 166 163 170 185 183
257 256 255 254 253 252 250 250 249 249 249 250 249 249 248 248 248 249 249 249 249 250 250 251 251 251 251 251 252 252 253 253 255 259 265 270 275 263 245 232 216 200 172 147 129 114 97 76 64 56 52 59 68 76 70 57 48 33 32 34 15 11 18 24 31 37 43 45 43 44 44 47 52 58 67 72 76 130 160 160 167 172 171 172 171 169 186 195
258 256 255 254 253 252 251 250 249 249 249 249 249 250 249 248 248 248 249 249 249 248 249 250 250 250 250 250 250 252 253 255 257 260 264 266 267 258 241 228 215 202 183 162 144 128 113 92 71 61 53 56 68 80 80 70 57 40 33 25 6 6 11 15 24 31 38 42 41 40 40 41 44 51 62 76 75 91 161 163 168 183 181 178 178 169 182 199
260 258 256 254 253 252 251 250 249 248 248 248 249 249 249 249 248 248 248 248 248 248 249 249 250 251 251 251 252 254 256 257 260 261 262 261 258 250 235 222 211 202 191 175 160 145 125 103 77 71 60 56 68 81 86 82 70 53 35 16 3 3 4 7 19 29 35 38 38 36 37 38 39 45 55 80 86 79 144 158 160 186 191 190 186 168 176 193
261 260 258 256 254 253 252 251 250 249 248 247 247 248 248 249 249 248 249 249 249 248 248 249 250 251 252 253 254 256 257 257 259 259 258 253 248 240 228 217 208 202 195 185 175 163 142 119 92 82 65 60 71 81 88 88 80 67 40 15 3 359 357 1 12 26 34 34 33 31 31 35 36 39 46 69 92 95 132 153 156 172 190 205 206 180 175 185
262 261 259 257 255 253 252 251 250 250 248 247 246 246 247 247 248 248 248 249 249 248 248 248 249 250 251 252 253 254 254 254 254 253 250 245 239 231 221 212 206 203 197 191 187 176 152 134 112 89 63 66 73 53 61 76 85 84 56 16 2 356 353 354 2 17 29 32 30 26 23 27 30 33 38 45 54 86 128 156 165 167 183 205 218 204 186 184
263 262 260 258 257 254 253 252 251 250 249 248 246 245 245 245 246 246 247 248 249 248 247 247 247 247 249 249 250 249 249 248 246 245 243 238 232 224 215 208 204 201 197 194 195 184 162 149 134 104 60 62 63 360 5 37 66 87 72 22 2 356 352 351 355 7 22 29 29 24 18 20 22 25 30 33 32 38 105 168 181 181 189 196 205 211 201 190
262 262 260 259 257 255 254 252 251 250 250 249 248 246 244 244 244 245 245 246 247 248 247 246 246 245 245 246 246 245 243 241 238 237 236 233 227 218 211 206 204 202 199 198 200 192 175 168 159 111 53 48 41 350 346 4 22 88 84 32 3 355 348 347 351 359 14 23 25 23 18 16 16 17 20 24 26 20 2 231 206 206 200 193 194 205 207 197
260 260 260 259 257 256 254 252 251 250 250 249 249 247 246 244 243 243 244 244 244 245 246 246 245 244 243 243 242 240 238 237 234 231 231 228 223 215 208 204 204 203 203 201 201 198 186 178 165 117 58 37 22 350 336 334 326 326 94 44 5 350 341 344 348 351 4 17 22 23 20 16 14 14 15 15 15 12 356 304 247 225 210 203 197 201 208 203
259 258 258 258 257 256 254 253 251 250 249 249 248 248 247 245 243 242 242 242 242 243 244 244 244 243 242 241 240 237 235 234 231 229 227 224 220 214 207 205 205 204 207 205 202 203 193 176 164 153 130 27 11 346 331 324 314 319 49 46 358 341 335 341 345 343 352 8 17 20 20 17 12 11 12 10 5 3 354 323 270 238 222 215 205 199 205 206
259 257 256 256 256 255 254 252 251 250 249 248 248 247 247 246 244 243 241 241 241 241 242 242 242 242 241 240 238 235 233 231 228 226 224 221 217 212 207 206 205 205 209 208 203 203 193 178 176 202 240 345 356 326 313 314 313 323 349 359 334 330 327 336 337 333 339 354 11 14 16 18 12 7 8 6 0 356 352 339 291 243 227 224 216 198 197 205
259 257 255 254 254 254 253 252 251 250 249 248 247 247 246 245 244 243 242 240 239 239 240 240 240 239 239 237 235 233 231 228 226 224 221 219 216 211 208 207 207 209 211 208 203 198 193 190 189 201 230 288 316 283 286 298 306 310 302 272 305 309 309 323 323 320 327 341 1 2 6 24 16 5 3 0 356 351 349 346 318 249 226 227 224 204 195 205
258 257 255 254 253 252 252 251 250 250 249 248 247 247 246 245 244 243 242 240 238 238 237 238 238 238 237 235 234 233 230 228 225 222 219 218 216 213 211 210 211 214 213 211 208 203 201 202 197 198 220 246 261 266 278 285 291 288 278 261 260 281 292 306 306 306 313 328 350 350 359 24 18 3 360 357 353 349 346 344 332 269 228 225 225 213 201 206
257 256 255 253 252 251 250 250 249 249 248 248 247 246 246 245 244 243 241 240 238 237 236 236 236 236 235 234 234 233 231 229 224 222 219 217 216 214 212 212 212 214 214 213 212 211 212 213 204 200 218 233 241 260 271 273 275 267 255 252 244 257 279 287 287 293 302 316 344 352 359 17 16 3 357 356 352 347 345 342 334 301 237 221 221 219 209 208
255 253 253 252 251 250 249 249 248 248 248 247 246 246 245 245 244 243 241 240 238 236 235 234 234 234 235 234 234 233 231 229 224 222 220 218 216 213 212 212 211 213 216 216 217 218 220 222 213 208 220 227 236 256 263 263 264 255 242 245 241 237 252 266 273 283 294 309 342 0 2 11 13 5 356 354 354 348 345 342 335 318 258 220 217 220 216 212
252 251 250 250 249 248 248 247 247 247 247 247 246 245 244 244 243 242 241 239 237 236 235 234 233 233 234 234 234 233 231 229 226 223 221 219 218 216 214 213 211 213 216 218 220 223 225 227 223 221 225 227 237 247 249 252 257 254 245 242 237 225 230 250 263 275 286 302 340 0 2 8 9 3 356 353 352 349 345 344 340 327 288 226 213 217 220 217
251 249 247 247 247 246 246 245 245 245 246 246 245 245 243 242 242 241 240 238 237 236 235 234 233 232 233 233 234 233 231 230 228 226 224 222 221 219 216 215 214 215 218 221 224 228 230 231 231 231 230 231 239 244 247 257 261 256 250 243 235 220 220 240 254 268 279 291 333 353 360 7 4 356 354 350 348 347 345 346 346 338 316 236 210 211 218 219
249 246 245 244 244 243 243 243 243 243 243 243 243 243 242 240 239 239 238 236 235 233 232 232 232 232 232 232 232 232 231 231 230 228 227 225 224 223 222 220 218 219 222 226 229 232 233 235 236 235 236 239 245 250 255 265 265 257 252 245 237 221 220 237 249 262 270 282 323 344 352 0 360 351 349 348 346 345 343 346 350 349 344 249 206 207 214 218
246 243 241 241 240 240 239 239 239 239 240 240 240 240 239 238 236 236 235 234 233 232 231 231 230 231 231 230 230 231 231 231 231 231 230 229 228 227 226 225 224 225 227 230 234 235 236 238 238 238 242 247 251 256 257 260 260 256 250 245 238 221 222 236 245 255 263 281 316 335 343 351 359 353 347 347 346 345 342 344 351 355 358 335 212 210 213 217
242 238 236 236 236 235 234 234 233 234 235 236 237 237 236 236 235 233 233 232 231 230 230 229 229 229 230 230 230 230 230 231 232 233 233 233 232 231 230 229 228 228 230 233 236 238 238 239 241 244 248 252 254 256 256 255 255 252 245 241 237 225 222 233 242 250 259 278 304 323 334 341 355 355 348 346 345 346 343 341 348 357 2 353 254 221 217 219
236 234 232 231 230 228 227 226 226 227 229 232 234 234 234 234 233 232 231 230 229 228 228 228 228 228 229 229 229 229 229 230 231 232 233 234 234 234 233 231 231 231 232 234 237 239 238 239 242 246 249 252 254 255 251 248 245 243 240 234 233 231 226 230 238 246 254 268 292 310 321 330 346 352 348 344 343 346 344 340 342 353 3 360 322 241 223 222
231 229 227 225 223 218 216 215 216 219 223 227 230 231 232 231 230 229 227 227 226 226 227 226 225 225 226 226 227 227 227 228 229 230 231 232 233 234 233 232 232 233 233 234 237 239 238 240 244 247 247 249 251 251 244 237 234 234 233 229 232 233 227 228 234 241 247 254 281 300 309 320 336 349 346 339 340 345 344 340 337 344 1 6 351 285 231 223
228 225 222 219 215 209 207 208 210 213 218 223 227 228 229 228 227 226 224 224 224 224 224 223 223 223 223 224 225 225 226 226 228 229 229 229 230 231 231 232 232 232 232 233 236 238 239 244 247 246 245 246 246 244 234 227 227 227 227 228 232 233 227 229 232 234 242 249 263 283 301 310 325 348 345 334 336 343 343 341 339 340 355 7 5 342 245 224
225 222 219 215 211 205 204 206 207 212 218 223 225 226 225 225 224 222 220 221 221 221 222 222 222 221 221 222 222 223 224 223 224 226 226 226 227 228 229 229 230 230 230 232 233 235 240 245 246 243 242 242 239 235 228 224 223 224 227 229 232 232 227 228 229 230 241 254 260 270 292 299 309 342 339 327 332 341 344 348 346 340 347 4 10 3 311 235
223 220 216 213 210 206 207 208 210 215 221 224 225 225 224 223 222 219 216 217 218 219 220 221 221 220 220 220 220 221 222 222 223 224 224 224 226 228 228 228 229 228 226 228 230 234 239 244 243 240 238 235 232 226 223 221 220 224 227 228 232 231 224 223 224 229 240 252 264 272 287 293 298 321 326 318 328 336 344 352 352 344 342 355 5 7 356 295
222 217 214 213 210 209 210 212 215 219 223 226 225 224 223 222 219 215 212 213 216 217 219 219 218 218 218 218 218 220 222 222 222 223 223 222 223 224 226 228 228 225 224 224 226 231 237 240 237 234 231 225 221 219 218 217 219 224 226 226 230 228 220 217 219 230 242 250 265 274 282 292 294 301 307 305 313 326 338 350 350 346 347 349 355 3 4 357
223 217 214 212 211 210 211 214 217 221 223 224 221 219 219 217 214 210 208 211 214 215 217 216 215 216 217 217 218 220 221 223 223 223 221 221 221 222 223 224 224 223 223 222 223 228 232 234 231 229 224 217 217 218 217 217 222 225 224 225 230 228 221 214 214 230 244 250 264 271 274 283 287 291 296 292 291 308 327 342 344 341 346 349 353 1 2 9
223 217 214 212 211 211 211 214 216 219 221 219 215 213 213 211 208 205 205 209 211 212 214 213 213 214 215 215 216 217 219 221 222 222 221 220 220 221 222 224 225 224 223 223 225 229 232 232 229 224 218 215 217 219 216 217 224 225 223 226 229 229 226 216 217 232 242 248 255 263 268 273 283 289 289 285 284 295 313 326 330 329 334 342 354 5 4 7
222 216 212 211 210 209 210 212 213 215 215 213 209 207 206 205 202 201 203 206 208 209 211 211 210 212 213 213 213 215 216 217 217 217 219 219 219 221 221 223 224 223 224 227 229 232 235 233 225 216 212 215 218 217 214 218 224 223 220 223 227 231 230 225 225 231 241 252 253 254 263 270 280 287 285 282 288 293 303 313 316 315 320 332 346 360 6 8
225 216 211 208 206 205 206 207 208 209 208 205 202 200 200 199 198 198 201 202 203 206 208 207 206 207 209 210 210 212 211 210 210 210 213 216 218 219 220 221 220 217 220 224 227 230 229 222 216 208 206 212 215 213 212 216 221 223 219 217 221 230 231 230 235 235 239 250 250 248 256 262 266 272 277 281 289 295 303 313 312 305 306 321 339 355 2 6
225 214 208 204 201 200 200 201 202 202 200 197 196 196 195 194 195 196 198 198 198 202 203 201 201 202 205 206 206 207 206 205 207 208 210 214 215 215 215 213 211 210 213 217 220 222 215 205 201 200 206 209 208 207 209 216 221 218 217 215 215 229 234 231 236 236 236 243 242 242 248 252 257 259 259 277 300 301 306 313 307 294 293 304 327 347 356 359
219 207 201 197 194 194 195 196 196 195 193 191 191 191 190 191 194 194 193 193 193 196 197 196 197 198 199 201 202 204 203 202 205 207 210 211 210 213 214 212 208 208 211 213 210 204 200 201 198 198 205 205 203 202 198 214 229 219 217 217 211 223 234 230 236 238 237 240 236 234 238 241 253 259 249 284 314 303 303 306 299 287 285 292 310 330 346 352
208 196 189 186 186 187 188 188 189 190 188 186 187 187 186 188 191 189 188 187 187 188 188 189 191 191 190 190 192 195 193 194 197 199 203 203 201 203 208 211 211 209 209 207 200 192 187 193 199 200 202 199 198 200 193 194 217 214 213 212 208 219 225 223 236 233 226 233 229 228 235 229 219 227 228 260 288 286 284 286 287 287 289 294 305 318 331 339
185 179 176 176 178 180 181 181 182 182 181 182 181 179 180 183 182 181 180 179 178 177 176 176 176 177 178 178 182 185 184 187 190 189 192 196 197 197 199 205 207 207 206 198 192 190 187 191 201 197 193 193 193 201 204 198 204 223 218 210 211 225 220 216 229 228 221 225 221 221 230 228 219 210 180 203 256 260 257 263 275 285 304 308 314 324 330 334
163 165 166 168 171 173 174 174 174 174 174 173 171 169 170 173 171 169 168 167 166 164 163 165 164 161 160 166 173 178 181 184 188 189 188 192 197 199 200 203 203 204 203 192 181 181 186 199 204 189 183 193 195 201 205 194 195 220 221 220 227 227 216 215 225 228 223 220 221 223 223 226 232 219 188 191 218 238 249 251 259 268 291 310 320 338 340 337
151 157 161 164 166 167 167 166 164 163 158 154 156 158 156 157 156 154 154 156 157 156 154 151 152 152 150 156 164 170 177 181 184 189 190 193 200 200 200 201 200 202 200 190 181 179 181 188 192 182 184 197 198 198 201 195 197 202 199 227 234 227 218 217 219 220 214 211 220 225 220 214 218 217 207 204 200 212 267 281 287 272 277 291 308 330 333 330
149 155 159 160 160 159 157 154 150 146 144 143 145 147 146 148 149 149 151 153 153 156 154 147 148 153 152 154 160 166 174 177 178 184 187 191 199 201 200 197 195 200 198 188 183 182 180 174 183 187 187 196 200 197 201 207 209 206 204 214 220 217 216 212 209 210 207 208 217 220 222 215 200 215 221 213 203 238 298 302 314 309 287 286 292 301 311 316
147 152 153 153 152 149 145 142 140 140 141 142 142 142 143 146 148 149 150 151 150 152 151 146 147 154 154 154 156 159 166 169 169 176 181 185 194 197 198 199 197 194 191 187 180 178 175 164 181 199 192 195 205 199 204 222 220 216 215 214 211 214 214 207 206 207 203 206 214 215 219 215 202 217 231 224 225 262 300 304 314 325 312 300 294 290 296 303
146 148 148 147 145 142 140 140 140 141 142 143 143 143 145 147 149 149 149 148 147 147 148 147 147 149 150 149 148 150 155 157 157 166 173 179 190 192 191 197 196 184 179 185 180 178 180 169 169 205 198 192 204 197 199 227 227 220 218 217 222 223 214 208 210 208 203 205 211 212 214 215 201 191 226 241 229 251 302 303 312 318 313 306 298 290 289 293
146 146 146 144 143 142 142 143 143 143 145 145 146 146 148 148 147 147 145 142 141 139 139 140 140 142 142 141 142 145 149 150 150 153 160 173 186 188 188 188 182 174 175 185 183 182 186 178 169 190 189 181 201 203 199 218 232 223 212 213 223 224 213 208 210 213 209 206 211 214 218 221 201 165 178 247 245 264 293 299 311 311 307 305 299 293 290 290
147 147 146 145 146 145 145 146 146 147 148 149 149 148 148 147 145 144 141 136 134 132 132 133 134 136 137 137 138 138 133 124 119 121 120 140 164 168 179 180 173 170 169 174 181 182 184 185 184 187 181 178 197 201 199 215 227 222 214 213 215 216 214 207 206 216 215 210 212 215 221 229 210 170 183 238 252 261 275 290 304 306 305 304 300 297 294 291
150 148 147 147 149 149 149 151 151 151 153 153 153 151 150 149 148 144 139 136 135 134 137 138 135 136 138 135 128 116 106 96 91 99 107 109 122 128 138 156 163 170 172 171 178 181 181 186 192 194 193 194 193 190 200 215 218 217 219 219 218 217 216 212 208 211 211 210 211 211 221 232 217 190 201 229 245 252 265 280 292 302 305 305 303 300 296 291
152 152 151 151 152 153 155 156 155 155 158 159 158 156 155 154 152 147 143 143 143 145 149 146 139 141 142 134 121 110 106 103 98 105 112 106 107 114 115 128 142 155 168 169 171 179 184 188 194 196 196 196 193 194 204 208 213 217 215 217 226 228 225 224 218 212 210 213 216 216 223 227 213 200 208 232 247 252 266 276 288 302 305 307 306 303 299 292
156 156 155 156 158 159 160 161 160 161 163 164 163 163 162 159 158 154 151 152 153 154 157 153 147 151 150 138 130 122 115 115 109 113 122 116 107 108 107 115 130 139 160 167 169 184 192 191 195 197 193 195 203 207 207 205 208 212 208 214 225 229 232 232 225 219 218 217 215 214 214 216 213 207 211 236 255 261 273 283 294 304 308 310 309 307 306 299
161 161 162 163 164 166 166 167 166 166 169 171 171 170 167 165 166 165 161 163 165 163 161 160 156 158 159 154 144 132 128 149 134 120 133 134 119 114 113 114 116 122 146 158 166 190 202 201 203 207 203 199 204 208 211 213 210 206 205 212 219 223 229 234 231 225 221 216 213 213 216 219 217 211 221 252 269 274 285 294 300 308 314 314 310 308 308 305
165 167 169 170 171 172 172 171 171 171 174 176 178 179 177 175 175 174 171 173 177 176 173 174 171 165 166 166 158 142 140 153 144 127 143 148 133 124 122 120 119 118 129 139 143 180 205 214 212 216 219 216 212 212 217 224 223 214 208 210 215 220 223 228 232 225 214 216 215 210 234 242 237 247 260 268 280 286 296 301 302 310 317 317 315 312 308 307
170 172 175 175 175 176 176 172 170 171 175 180 186 191 193 193 191 189 187 186 185 186 185 185 183 174 170 172 169 164 161 153 142 136 147 155 150 144 138 137 138 131 132 144 147 180 212 220 213 215 223 225 226 226 224 225 226 225 223 217 216 219 218 221 228 224 213 232 224 206 239 253 259 280 271 268 281 290 296 299 302 309 315 318 319 316 312 310
173 176 179 179 178 179 178 174 171 172 177 183 190 198 203 207 205 196 194 193 186 188 191 190 191 188 184 184 183 181 173 158 146 143 150 160 168 170 165 161 161 160 159 167 174 207 227 228 218 218 224 226 226 225 223 222 222 222 224 222 218 216 216 220 226 227 223 233 230 224 241 252 264 276 269 266 278 288 294 297 300 304 307 314 319 318 316 313
176 178 182 182 181 180 179 179 177 176 180 185 191 199 203 208 209 199 195 192 180 182 189 191 195 198 199 203 202 200 192 173 157 157 164 172 182 188 192 191 190 190 191 195 204 222 234 233 222 223 229 231 227 222 220 221 220 221 222 223 220 214 214 218 221 224 227 227 226 231 241 252 262 268 267 269 276 285 292 294 295 298 302 308 313 316 316 313
178 180 183 184 184 184 183 184 184 182 183 184 187 194 199 205 211 210 211 208 196 194 195 192 197 200 202 211 219 222 221 213 195 190 194 197 200 206 214 225 232 223 209 208 206 211 223 224 223 226 232 238 234 223 219 219 219 220 221 223 223 216 214 220 220 221 228 232 235 240 244 249 258 264 267 271 276 283 288 289 292 297 301 304 307 312 315 314
181 183 185 187 190 191 190 191 191 191 191 191 189 191 194 201 208 212 217 220 217 216 214 212 216 213 210 226 249 255 253 250 243 231 228 229 226 224 226 234 245 250 245 235 223 216 216 219 233 232 228 240 239 225 221 221 220 220 219 220 225 221 218 225 226 226 232 235 237 245 251 251 255 263 268 273 278 282 284 287 290 294 298 302 304 307 310 313
Height
5898 5899 5899 5900 5901 5902 5903 5904 5904 5905 5906 5907 5908 5909 5909 5910 5911 5912 5913 5914 5915 5916 5917 5918 5918 5919 5919 5920 5920 5921 5921 5922 5922 5922 5923 5923 5923 5923 5923 5924 5924 5924 5924 5924 5924 5925 5925 5924 5924 5924 5924 5923 5923 5923 5922 5922 5921 5921 5921 5921 5921 5921 5920 5919 5918 5918 5917 5915 5914 5913 5912 5912 5912 5912 5912 5911 5911 5910 5911 5911 5912 5912 5912 5913 5914 5914 5916 5916
5896 5896 5897 5898 5898 5899 5900 5901 5902 5903 5904 5905 5905 5906 5907 5908 5909 5910 5911 5912 5913 5914 5915 5916 5917 5918 5918 5919 5919 5920 5920 5921 5921 5922 5922 5922 5923 5923 5923 5923 5923 5924 5924 5924 5924 5925 5925 5924 5924 5924 5924 5924 5924 5923 5923 5923 5922 5922 5922 5922 5922 5922 5920 5919 5919 5918 5917 5915 5914 5914 5913 5913 5913 5913 5913 5912 5912 5911 5911 5911 5912 5912 5912 5913 5914 5915 5917 5917
5893 5894 5894 5895 5896 5897 5897 5898 5899 5900 5901 5902 5903 5904 5905 5906 5907 5908 5909 5910 5911 5913 5914 5915 5915 5916 5917 5918 5918 5918 5919 5920 5920 5921 5921 5922 5922 5922 5923 5923 5923 5923 5924 5924 5924 5925 5925 5925 5925 5925 5925 5924 5924 5924 5924 5924 5923 5923 5923 5923 5923 5922 5921 5920 5919 5918 5917 5916 5915 5914 5914 5914 5914 5914 5913 5913 5912 5912 5912 5912 5912 5912 5913 5913 5914 5915 5917 5917
5890 5891 5891 5892 5893 5894 5895 5896 5897 5898 5899 5900 5901 5902 5903 5904 5905 5906 5907 5908 5909 5911 5912 5913 5914 5915 5915 5916 5917 5917 5918 5918 5919 5919 5920 5921 5921 5922 5922 5922 5923 5923 5923 5924 5924 5924 5925 5925 5925 5925 5925 5925 5925 5925 5924 5924 5924 5923 5923 5923 5923 5922 5921 5920 5919 5919 5918 5917 5916 5915 5915 5914 5914 5914 5914 5914 5913 5913 5913 5913 5913 5913 5913 5913 5914 5915 5916 5918
5887 5888 5888 5889 5890 5891 5892 5893 5894 5895 5896 5897 5898 5900 5901 5902 5903 5904 5905 5906 5907 5909 5910 5911 5912 5913 5914 5914 5915 5916 5916 5917 5917 5918 5919 5919 5920 5921 5921 5922 5922 5923 5923 5923 5924 5924 5925 5925 5925 5925 5925 5925 5925 5925 5925 5925 5924 5924 5923 5923 5923 5922 5922 5921 5920 5919 5919 5918 5917 5916 5915 5915 5914 5914 5915 5915 5915 5914 5914 5914 5914 5914 5914 5914 5914 5915 5917 5918
5884 5884 5885 5886 5887 5888 5889 5890 5891 5892 5893 5894 5896 5897 5898 5900 5901 5902 5903 5904 5905 5907 5908 5909 5910 5911 5912 5913 5913 5914 5915 5915 5916 5916 5917 5917 5918 5919 5920 5921 5921 5922 5922 5923 5923 5924 5924 5925 5925 5925 5925 5925 5926 5926 5925 5925 5925 5924 5924 5924 5923 5923 5922 5921 5921 5920 5919 5919 5918 5917 5916 5915 5915 5914 5914 5915 5916 5916 5915 5915 5915 5915 5915 5916 5915 5915 5917 5918
5881 5881 5882 5883 5884 5885 5886 5887 5888 5889 5890 5891 5893 5894 5896 5897 5898 5900 5901 5902 5903 5904 5906 5907 5908 5909 5910 5910 5911 5912 5913 5913 5914 5915 5915 5916 5917 5918 5919 5920 5920 5921 5922 5922 5923 5924 5924 5925 5925 5925 5926 5926 5926 5926 5926 5925 5925 5925 5925 5924 5923 5923 5923 5922 5922 5921 5921 5920 5919 5918 5917 5916 5915 5915 5914 5914 5915 5915 5916 5916 5916 5916 5916 5916 5916 5916 5917 5917
5878 5878 5879 5880 5881 5882 5883 5884 5885 5886 5887 5889 5890 5891 5893 5894 5896 5897 5899 5900 5901 5902 5903 5905 5906 5907 5908 5908 5909 5910 5911 5912 5913 5913 5914 5914 5915 5916 5918 5919 5919 5920 5921 5922 5923 5923 5924 5925 5925 5925 5926 5926 5926 5926 5926 5926 5925 5925 5925 5924 5924 5924 5923 5923 5923 5922 5922 5921 5920 5919 5918 5917 5916 5916 5915 5915 5914 5914 5915 5916 5916 5916 5916 5916 5916 5917 5917 5918
5875 5875 5876 5877 5878 5879 5880 5881 5882 5883 5884 5886 5887 5888 5890 5892 5893 5895 5896 5898 5899 5900 5901 5903 5904 5905 5906 5906 5907 5908 5909 5910 5911 5912 5912 5913 5914 5915 5917 5918 5919 5919 5920 5921 5922 5923 5923 5924 5925 5925 5926 5926 5926 5926 5926 5926 5926 5925 5925 5925 5925 5924 5924 5924 5923 5923 5923 5922 5922 5921 5919 5918 5917 5917 5916 5916 5915 5915 5915 5915 5915 5915 5915 5915 5916 5917 5918 5918
5872 5872 5873 5874 5875 5876 5877 5878 5879 5880 5881 5883 5884 5886 5887 5889 5890 5892 5894 5896 5897 5898 5900 5901 5902 5903 5904 5905 5906 5907 5908 5909 5910 5910 5911 5912 5913 5914 5916 5917 5918 5919 5920 5921 5922 5922 5923 5924 5924 5925 5926 5926 5926 5926 5926 5926 5925 5926 5926 5926 5925 5925 5925 5924 5924 5924 5924 5923 5922 5922 5921 5919 5918 5918 5917 5917 5916 5915 5915 5915 5915 5915 5916 5916 5916 5917 5918 5919
5869 5869 5870 5871 5872 5873 5874 5875 5876 5877 5878 5880 5881 5883 5884 5886 5888 5889 5891 5893 5895 5896 5898 5899 5900 5901 5902 5903 5904 5905 5907 5907 5908 5909 5910 5911 5912 5914 5915 5916 5917 5919 5920 5921 5922 5922 5923 5923 5924 5925 5925 5925 5926 5926 5926 5926 5925 5926 5926 5926 5926 5925 5925 5925 5924 5924 5924 5924 5923 5923 5922 5920 5919 5918 5918 5917 5916 5916 5915 5915 5915 5915 5916 5916 5916 5917 5918 5919
5865 5866 5867 5868 5869 5870 5871 5872 5873 5874 5875 5877 5878 5880 5881 5883 5885 5887 5888 5890 5892 5894 5896 5897 5898 5899 5900 5901 5903 5904 5905 5906 5907 5908 5909 5910 5911 5913 5914 5915 5917 5918 5919 5920 5921 5922 5922 5923 5923 5924 5924 5925 5925 5926 5926 5926 5926 5926 5926 5926 5926 5926 5925 5925 5925 5925 5924 5924 5924 5923 5923 5922 5920 5919 5919 5918 5917 5916 5916 5916 5915 5915 5916 5916 5916 5917 5918 5918
5862 5863 5864 5865 5866 5867 5868 5869 5870 5871 5872 5874 5875 5877 5878 5880 5882 5884 5886 5888 5890 5892 5893 5895 5896 5897 5898 5900 5901 5902 5903 5904 5906 5907 5908 5909 5910 5912 5913 5914 5916 5917 5918 5919 5920 5921 5922 5922 5923 5923 5924 5925 5925 5925 5926 5926 5926 5926 5926 5926 5927 5926 5926 5926 5925 5925 5925 5925 5924 5924 5923 5922 5921 5920 5920 5919 5918 5917 5916 5916 5915 5915 5915 5916 5916 5917 5917 5918
5858 5859 5860 5861 5862 5863 5865 5866 5867 5868 5869 5871 5873 5874 5876 5877 5879 5881 5883 5885 5887 5889 5891 5892 5894 5895 5897 5898 5899 5900 5902 5903 5904 5906 5907 5908 5909 5911 5912 5914 5915 5916 5917 5918 5919 5920 5921 5922 5923 5923 5924 5924 5925 5925 5925 5926 5926 5926 5926 5927 5927 5926 5926 5926 5925 5925 5925 5925 5925 5924 5923 5922 5922 5921 5921 5920 5918 5917 5917 5916 5915 5915 5915 5915 5916 5916 5917 5917
5855 5856 5857 5858 5859 5860 5861 5863 5864 5865 5867 5868 5870 5871 5873 5875 5876 5878 5880 5882 5884 5886 5888 5890 5892 5893 5894 5895 5897 5899 5900 5901 5903 5904 5906 5907 5908 5910 5911 5913 5914 5915 5916 5918 5919 5919 5920 5921 5922 5923 5923 5924 5924 5925 5925 5925 5926 5926 5926 5926 5927 5926 5926 5926 5925 5925 5925 5925 5925 5925 5923 5922 5922 5922 5921 5921 5919 5918 5917 5916 5915 5914 5914 5915 5915 5916 5916 5916
5851 5852 5853 5854 5856 5857 5858 5860 5861 5863 5864 5866 5867 5869 5870 5872 5874 5875 5877 5879 5881 5883 5885 5887 5889 5891 5892 5893 5895 5897 5898 5900 5902 5903 5904 5906 5907 5909 5910 5912 5913 5914 5915 5917 5918 5918 5919 5920 5921 5922 5923 5923 5924 5924 5925 5925 5926 5926 5926 5926 5926 5926 5926 5926 5925 5925 5925 5925 5926 5925 5925 5923 5923 5923 5922 5921 5920 5919 5918 5916 5915 5914 5913 5914 5914 5915 5915 5916
5848 5849 5850 5851 5852 5854 5855 5857 5859 5860 5861 5863 5864 5866 5868 5869 5871 5873 5874 5876 5878 5880 5882 5883 5886 5888 5889 5891 5893 5895 5897 5898 5900 5901 5903 5904 5906 5907 5909 5910 5912 5913 5914 5915 5916 5917 5918 5919 5920 5921 5922 5923 5923 5924 5925 5925 5925 5925 5925 5925 5926 5926 5926 5926 5925 5925 5925 5926 5926 5926 5925 5925 5924 5924 5923 5922 5921 5919 5918 5916 5915 5913 5912 5912 5913 5914 5915 5916
5844 5845 5846 5848 5849 5851 5852 5854 5856 5857 5858 5860 5862 5863 5865 5867 5868 5870 5872 5873 5875 5877 5879 5881 5883 5885 5886 5888 5891 5893 5895 5896 5898 5899 5901 5902 5904 5906 5908 5909 5911 5912 5913 5914 5914 5915 5917 5918 5918 5919 5920 5921 5922 5923 5924 5924 5924 5924 5924 5925 5925 5926 5926 5925 5925 5925 5925 5926 5926 5926 5926 5926 5925 5924 5923 5922 5921 5920 5918 5917 5915 5913 5911 5911 5912 5913 5914 5915
5841 5842 5843 5844 5846 5848 5849 5851 5853 5854 5856 5857 5859 5861 5862 5864 5866 5867 5869 5871 5872 5874 5876 5878 5880 5882 5883 5886 5888 5890 5892 5894 5895 5897 5899 5901 5902 5904 5906 5908 5909 5910 5911 5912 5913 5914 5915 5916 5917 5917 5918 5919 5920 5921 5923 5923 5924 5924 5924 5924 5925 5925 5925 5925 5925 5925 5925 5925 5925 5926 5926 5926 5926 5925 5924 5922 5921 5920 5918 5917 5915 5913 5911 5911 5911 5913 5914 5915
5838 5839 5840 5841 5843 5845 5847 5848 5850 5851 5853 5855 5856 5858 5859 5861 5863 5864 5866 5868 5870 5872 5873 5875 5877 5879 5881 5883 5885 5887 5889 5891 5893 5895 5897 5899 5900 5902 5904 5906 5907 5908 5909 5910 5910 5912 5913 5914 5914 5914 5915 5917 5918 5920 5922 5923 5923 5923 5923 5924 5924 5924 5924 5924 5925 5925 5925 5925 5925 5926 5926 5926 5926 5925 5924 5923 5921 5920 5918 5917 5916 5914 5912 5911 5912 5912 5913 5914
5835 5836 5837 5839 5841 5843 5844 5846 5848 5849 5851 5852 5854 5855 5857 5859 5860 5862 5864 5865 5867 5869 5870 5872 5874 5876 5878 5880 5882 5884 5886 5888 5890 5892 5894 5896 5898 5900 5901 5903 5905 5906 5907 5908 5908 5909 5911 5912 5912 5912 5914 5915 5917 5919 5920 5921 5922 5922 5923 5923 5923 5923 5923 5924 5924 5924 5925 5925 5925 5925 5925 5925 5925 5925 5924 5923 5921 5920 5919 5917 5916 5915 5913 5912 5912 5912 5912 5913
5832 5833 5835 5837 5839 5841 5842 5844 5845 5847 5848 5850 5851 5853 5854 5856 5858 5860 5862 5863 5865 5866 5868 5870 5872 5874 5876 5878 5879 5881 5883 5885 5887 5889 5891 5893 5895 5897 5899 5900 5902 5903 5905 5906 5906 5907 5908 5909 5909 5910 5912 5914 5915 5917 5919 5920 5921 5921 5921 5922 5922 5922 5923 5923 5924 5924 5924 5925 5925 5925 5925 5925 5925 5925 5924 5923 5922 5920 5919 5918 5917 5916 5914 5913 5913 5912 5912 5913
5829 5831 5833 5835 5837 5839 5840 5842 5843 5845 5846 5847 5849 5850 5852 5854 5856 5858 5859 5861 5862 5864 5866 5868 5870 5871 5873 5875 5877 5879 5881 5882 5884 5886 5888 5890 5892 5893 5895 5897 5898 5900 5902 5903 5903 5904 5905 5905 5906 5908 5910 5912 5914 5916 5917 5918 5919 5920 5920 5920 5920 5921 5922 5922 5923 5923 5924 5924 5924 5924 5924 5924 5925 5925 5924 5923 5922 5921 5919 5918 5917 5917 5915 5914 5913 5912 5911 5912
5827 5829 5831 5833 5835 5837 5839 5840 5841 5843 5844 5845 5847 5849 5851 5853 5854 5856 5857 5859 5860 5862 5864 5865 5867 5869 5871 5873 5875 5877 5878 5880 5882 5883 5885 5887 5889 5890 5892 5894 5895 5897 5899 5900 5901 5902 5902 5901 5904 5907 5908 5910 5912 5914 5916 5917 5917 5918 5918 5918 5918 5919 5921 5921 5922 5923 5923 5924 5924 5923 5923 5923 5924 5924 5924 5923 5922 5921 5920 5919 5918 5917 5916 5915 5914 5913 5912 5912
5825 5827 5829 5831 5833 5835 5837 5838 5840 5841 5842 5844 5846 5848 5849 5851 5852 5854 5856 5857 5859 5860 5862 5863 5865 5867 5869 5871 5873 5874 5876 5877 5879 5880 5882 5884 5886 5887 5889 5891 5892 5894 5896 5897 5898 5899 5899 5899 5902 5904 5906 5908 5910 5912 5914 5915 5916 5917 5916 5916 5917 5919 5920 5921 5922 5923 5923 5923 5923 5923 5923 5922 5923 5924 5924 5923 5922 5921 5920 5919 5918 5918 5917 5916 5915 5914 5913 5913
5824 5826 5828 5829 5831 5833 5835 5837 5838 5839 5841 5842 5844 5846 5848 5849 5850 5852 5854 5855 5857 5858 5860 5861 5863 5865 5867 5869 5870 5872 5873 5875 5877 5878 5880 5882 5884 5886 5887 5888 5890 5892 5894 5895 5896 5896 5896 5898 5900 5902 5904 5907 5909 5910 5911 5913 5915 5914 5914 5915 5917 5918 5919 5920 5921 5922 5922 5923 5922 5922 5922 5922 5922 5923 5923 5923 5922 5921 5920 5919 5918 5918 5917 5916 5915 5914 5913 5913
5823 5824 5826 5827 5829 5831 5833 5835 5837 5838 5840 5841 5843 5845 5846 5847 5849 5851 5853 5854 5855 5857 5858 5860 5862 5864 5865 5867 5868 5870 5871 5873 5874 5876 5878 5880 5882 5884 5885 5886 5888 5890 5891 5892 5894 5894 5894 5896 5898 5900 5903 5905 5907 5907 5909 5911 5912 5912 5912 5914 5915 5916 5918 5919 5920 5921 5922 5922 5922 5921 5921 5921 5921 5922 5923 5923 5922 5921 5920 5919 5919 5918 5917 5917 5916 5915 5914 5913
5821 5822 5824 5825 5827 5829 5831 5833 5835 5837 5838 5840 5842 5843 5844 5846 5848 5849 5851 5852 5854 5855 5857 5858 5860 5862 5863 5865 5867 5868 5870 5871 5873 5874 5876 5878 5880 5881 5883 5884 5885 5887 5888 5890 5891 5891 5892 5894 5896 5899 5901 5903 5903 5904 5907 5909 5910 5910 5912 5913 5914 5915 5917 5918 5920 5921 5921 5921 5921 5921 5921 5921 5921 5921 5922 5922 5922 5921 5920 5919 5919 5918 5917 5917 5916 5915 5914 5913
5819 5820 5822 5824 5826 5828 5830 5831 5833 5835 5837 5839 5840 5842 5843 5845 5846 5848 5849 5851 5852 5853 5855 5857 5859 5860 5862 5864 5865 5866 5868 5869 5871 5873 5875 5876 5878 5879 5880 5882 5883 5885 5887 5888 5888 5889 5890 5893 5895 5898 5899 5900 5901 5903 5906 5907 5908 5910 5912 5913 5913 5915 5916 5918 5919 5920 5920 5920 5921 5920 5920 5921 5921 5921 5921 5921 5921 5921 5920 5919 5918 5918 5917 5917 5916 5915 5914 5914
5817 5818 5820 5822 5824 5826 5828 5830 5832 5834 5835 5837 5839 5840 5842 5843 5845 5847 5848 5849 5851 5852 5854 5856 5857 5859 5861 5862 5863 5865 5866 5868 5870 5871 5873 5874 5875 5877 5878 5880 5882 5884 5885 5886 5887 5887 5890 5893 5895 5896 5897 5898 5899 5901 5904 5905 5906 5909 5911 5912 5913 5914 5915 5917 5918 5919 5919 5920 5920 5920 5919 5920 5920 5921 5920 5920 5920 5920 5920 5919 5918 5918 5917 5917 5916 5916 5915 5914
5816 5817 5818 5820 5822 5824 5826 5828 5830 5832 5834 5836 5837 5839 5840 5842 5844 5845 5847 5848 5850 5851 5853 5854 5856 5858 5859 5860 5862 5863 5865 5866 5868 5869 5871 5872 5873 5875 5877 5878 5880 5881 5883 5884 5885 5886 5889 5891 5893 5894 5895 5895 5897 5900 5902 5904 5905 5907 5909 5911 5913 5914 5914 5916 5917 5918 5919 5919 5919 5919 5918 5919 5920 5920 5920 5919 5919 5919 5919 5919 5918 5918 5917 5917 5916 5916 5916 5915
5815 5816 5817 5819 5821 5823 5825 5827 5829 5831 5832 5834 5836 5838 5839 5841 5843 5844 5845 5847 5849 5850 5852 5853 5855 5856 5857 5859 5860 5862 5863 5865 5866 5867 5869 5870 5872 5873 5875 5876 5877 5879 5880 5881 5883 5885 5888 5889 5890 5891 5892 5893 5896 5899 5901 5903 5904 5906 5908 5910 5912 5913 5914 5915 5916 5917 5917 5918 5918 5918 5918 5918 5919 5920 5919 5919 5919 5919 5919 5919 5918 5918 5917 5917 5916 5916 5916 5916
5814 5815 5817 5818 5820 5822 5824 5826 5828 5830 5832 5833 5835 5837 5839 5841 5842 5843 5845 5846 5848 5849 5851 5852 5853 5855 5857 5858 5860 5861 5863 5864 5865 5866 5868 5869 5871 5872 5873 5874 5875 5877 5878 5880 5882 5884 5886 5887 5888 5889 5890 5893 5895 5897 5901 5904 5904 5905 5907 5908 5910 5912 5913 5914 5915 5915 5916 5917 5917 5916 5917 5918 5919 5919 5919 5918 5919 5919 5919 5918 5918 5917 5917 5917 5916 5916 5916 5916
5814 5815 5816 5818 5819 5821 5823 5825 5827 5829 5831 5833 5835 5837 5839 5841 5842 5843 5845 5846 5848 5849 5850 5852 5853 5855 5856 5858 5859 5861 5862 5863 5865 5866 5867 5868 5869 5871 5872 5873 5874 5875 5877 5879 5881 5883 5884 5886 5887 5888 5890 5892 5894 5896 5898 5901 5903 5904 5904 5905 5908 5910 5911 5912 5913 5914 5915 5916 5916 5916 5916 5917 5918 5918 5918 5918 5918 5919 5918 5918 5918 5917 5917 5917 5916 5916 5916 5916
5813 5814 5816 5817 5819 5821 5823 5825 5827 5829 5831 5833 5835 5837 5839 5841 5842 5843 5845 5847 5848 5849 5851 5852 5853 5855 5856 5858 5859 5860 5862 5863 5864 5865 5867 5868 5869 5869 5871 5872 5873 5874 5875 5877 5880 5881 5883 5884 5884 5886 5889 5891 5892 5894 5895 5898 5901 5902 5902 5904 5907 5907 5908 5910 5911 5912 5913 5914 5914 5915 5916 5917 5917 5917 5917 5918 5918 5918 5918 5918 5917 5917 5917 5917 5916 5916 5916 5916
5813 5814 5816 5817 5819 5821 5823 5826 5828 5830 5832 5834 5836 5837 5839 5841 5842 5844 5846 5847 5849 5850 5851 5852 5853 5855 5856 5858 5859 5860 5861 5863 5864 5865 5866 5867 5868 5869 5870 5871 5872 5873 5874 5876 5878 5880 5882 5883 5883 5885 5888 5889 5890 5892 5894 5897 5899 5900 5902 5905 5905 5904 5906 5908 5910 5910 5912 5913 5914 5914 5915 5916 5916 5916 5916 5916 5917 5917 5917 5917 5917 5917 5917 5917 5916 5916 5916 5915
5814 5815 5816 5818 5820 5822 5824 5827 5829 5831 5833 5834 5836 5838 5839 5841 5843 5844 5846 5848 5849 5850 5851 5853 5854 5855 5856 5858 5859 5860 5861 5862 5863 5865 5866 5867 5867 5868 5869 5870 5871 5872 5873 5875 5876 5878 5880 5882 5884 5885 5887 5888 5889 5891 5893 5895 5896 5898 5902 5904 5902 5903 5906 5907 5908 5909 5911 5912 5913 5914 5914 5915 5916 5916 5915 5915 5915 5916 5916 5916 5917 5917 5916 5916 5916 5915 5915 5915
5815 5816 5818 5820 5822 5824 5826 5828 5830 5832 5834 5836 5837 5839 5841 5842 5844 5845 5847 5848 5849 5851 5852 5853 5855 5856 5856 5858 5859 5860 5861 5862 5863 5864 5865 5866 5867 5868 5869 5869 5870 5871 5873 5874 5876 5877 5879 5881 5883 5884 5885 5887 5888 5890 5892 5893 5895 5896 5898 5900 5901 5902 5904 5905 5906 5908 5909 5911 5912 5912 5913 5913 5915 5914 5914 5914 5914 5915 5915 5916 5916 5916 5916 5915 5915 5915 5915 5915
5817 5819 5820 5822 5824 5826 5828 5830 5832 5834 5835 5837 5839 5840 5842 5843 5845 5846 5847 5849 5850 5851 5852 5853 5855 5856 5857 5858 5859 5860 5861 5862 5863 5864 5864 5865 5866 5867 5868 5869 5870 5871 5872 5874 5875 5877 5879 5882 5885 5884 5884 5887 5888 5890 5893 5893 5894 5895 5896 5898 5900 5900 5902 5903 5905 5906 5908 5910 5910 5911 5911 5912 5913 5913 5913 5913 5914 5914 5915 5915 5915 5915 5915 5914 5914 5914 5914 5914
5819 5821 5822 5824 5826 5828 5830 5832 5834 5835 5837 5839 5840 5842 5843 5845 5846 5847 5848 5850 5851 5852 5853 5854 5856 5857 5858 5859 5860 5861 5862 5862 5863 5864 5864 5865 5866 5867 5867 5868 5869 5871 5872 5874 5875 5877 5878 5881 5884 5885 5885 5887 5889 5891 5893 5893 5893 5894 5896 5898 5899 5900 5901 5902 5903 5904 5906 5907 5909 5909 5910 5910 5911 5911 5911 5912 5913 5913 5914 5914 5914 5914 5914 5914 5913 5913 5913 5913
5821 5822 5824 5826 5828 5830 5832 5834 5835 5837 5839 5841 5842 5844 5845 5846 5848 5849 5850 5851 5853 5854 5855 5856 5857 5858 5859 5860 5861 5862 5863 5863 5864 5864 5865 5866 5866 5867 5867 5868 5869 5870 5872 5874 5875 5876 5878 5879 5882 5884 5886 5888 5889 5889 5890 5891 5892 5893 5895 5897 5898 5899 5899 5901 5902 5903 5904 5906 5907 5908 5909 5909 5909 5908 5909 5910 5911 5913 5913 5913 5913 5913 5913 5913 5913 5913 5913 5913
5822 5824 5825 5828 5830 5831 5834 5835 5837 5839 5841 5842 5844 5845 5847 5848 5849 5851 5852 5853 5854 5855 5856 5857 5858 5859 5860 5861 5862 5863 5864 5864 5865 5865 5866 5867 5867 5867 5868 5868 5869 5870 5871 5873 5874 5876 5878 5879 5881 5882 5885 5887 5888 5888 5889 5890 5891 5892 5894 5895 5896 5897 5898 5899 5901 5903 5904 5905 5906 5907 5908 5908 5908 5907 5908 5910 5911 5912 5912 5912 5912 5912 5912 5912 5912 5912 5912 5912
5824 5825 5827 5829 5831 5833 5835 5837 5839 5841 5843 5844 5846 5847 5849 5850 5851 5852 5853 5854 5855 5857 5857 5858 5859 5860 5862 5863 5863 5864 5865 5866 5866 5867 5867 5867 5867 5868 5868 5869 5870 5871 5871 5873 5874 5876 5878 5880 5881 5882 5883 5885 5886 5888 5889 5890 5891 5892 5893 5893 5894 5895 5896 5898 5900 5901 5903 5904 5905 5906 5906 5907 5907 5907 5908 5910 5911 5911 5911 5911 5911 5911 5911 5911 5911 5911 5911 5911
5825 5827 5829 5830 5833 5835 5837 5839 5840 5842 5844 5845 5847 5849 5850 5851 5852 5854 5855 5856 5857 5858 5859 5860 5861 5862 5863 5864 5865 5866 5866 5866 5867 5868 5868 5868 5868 5869 5869 5870 5871 5872 5873 5874 5876 5877 5878 5880 5881 5882 5883 5884 5886 5887 5888 5889 5890 5891 5891 5893 5894 5895 5896 5897 5899 5900 5902 5903 5903 5905 5906 5906 5906 5906 5906 5908 5909 5909 5910 5910 5910 5910 5910 5910 5910 5909 5909 5909
5827 5828 5830 5832 5834 5836 5838 5840 5842 5843 5845 5847 5848 5850 5851 5852 5854 5855 5856 5857 5858 5859 5860 5861 5862 5863 5864 5865 5866 5867 5867 5867 5867 5868 5869 5869 5870 5870 5871 5871 5872 5873 5874 5875 5876 5878 5878 5879 5880 5881 5882 5884 5885 5886 5886 5887 5888 5889 5890 5892 5893 5895 5896 5896 5898 5899 5900 5901 5901 5902 5904 5904 5904 5904 5904 5906 5908 5908 5909 5909 5909 5909 5909 5909 5908 5908 5908 5908
5828 5830 5831 5833 5835 5837 5839 5841 5843 5844 5846 5847 5849 5851 5852 5853 5855 5856 5857 5858 5859 5860 5861 5862 5863 5864 5865 5866 5867 5867 5868 5868 5868 5869 5870 5870 5870 5872 5872 5873 5874 5874 5875 5876 5877 5878 5879 5879 5880 5881 5881 5883 5884 5884 5885 5886 5887 5888 5889 5891 5892 5894 5895 5895 5896 5898 5899 5899 5899 5900 5901 5902 5903 5902 5902 5905 5906 5907 5907 5908 5908 5908 5908 5908 5907 5907 5907 5906
5829 5830 5832 5834 5836 5838 5840 5841 5843 5845 5847 5848 5850 5851 5853 5854 5855 5856 5858 5859 5860 5861 5862 5863 5864 5864 5865 5866 5867 5868 5869 5869 5869 5870 5870 5870 5871 5873 5873 5874 5874 5875 5876 5877 5878 5879 5879 5879 5880 5880 5881 5882 5883 5884 5885 5886 5886 5887 5888 5889 5891 5893 5894 5895 5896 5897 5897 5898 5898 5899 5899 5900 5901 5901 5902 5903 5904 5905 5906 5906 5907 5907 5907 5906 5906 5905 5905 5905
5829 5831 5832 5834 5836 5838 5840 5842 5843 5845 5847 5848 5850 5852 5853 5854 5855 5857 5858 5859 5860 5861 5862 5863 5864 5865 5865 5866 5867 5868 5869 5869 5870 5870 5871 5871 5872 5872 5873 5874 5875 5876 5876 5877 5878 5878 5878 5878 5879 5880 5880 5881 5882 5883 5884 5885 5886 5887 5888 5889 5891 5892 5893 5894 5894 5895 5896 5897 5898 5900 5899 5898 5900 5901 5901 5902 5902 5903 5904 5905 5905 5906 5905 5905 5904 5903 5903 5903
5829 5831 5832 5834 5836 5838 5840 5842 5843 5845 5847 5848 5850 5851 5852 5854 5855 5856 5858 5859 5860 5861 5862 5863 5864 5865 5866 5866 5867 5868 5868 5869 5870 5871 5871 5871 5871 5872 5872 5873 5874 5875 5876 5877 5878 5878 5877 5877 5877 5878 5879 5880 5881 5882 5883 5884 5885 5886 5888 5889 5890 5892 5893 5893 5893 5894 5895 5896 5898 5899 5898 5897 5899 5900 5900 5900 5901 5902 5903 5903 5904 5904 5904 5904 5903 5902 5901 5901
5829 5831 5832 5834 5836 5838 5840 5842 5843 5845 5846 5848 5849 5851 5852 5853 5854 5856 5857 5858 5859 5860 5861 5862 5864 5864 5865 5866 5867 5867 5868 5868 5869 5870 5871 5871 5871 5872 5872 5872 5873 5874 5875 5875 5876 5877 5876 5876 5877 5877 5878 5878 5879 5881 5882 5882 5884 5885 5887 5887 5888 5889 5891 5892 5892 5894 5895 5896 5897 5897 5897 5896 5896 5897 5898 5899 5899 5900 5901 5902 5902 5902 5902 5902 5901 5900 5899 5898
5829 5830 5832 5834 5836 5838 5840 5841 5843 5844 5846 5847 5848 5850 5851 5852 5854 5855 5856 5857 5858 5859 5860 5861 5862 5863 5864 5865 5866 5866 5867 5867 5868 5869 5870 5870 5871 5871 5872 5872 5872 5872 5873 5873 5874 5875 5875 5876 5876 5876 5877 5877 5877 5879 5880 5881 5882 5883 5884 5885 5886 5887 5888 5890 5891 5893 5894 5895 5895 5895 5896 5896 5896 5896 5897 5898 5898 5899 5899 5900 5900 5900 5900 5900 5899 5898 5897 5896
5828 5830 5832 5834 5835 5837 5839 5841 5842 5844 5845 5846 5848 5849 5850 5851 5853 5854 5855 5856 5857 5858 5859 5860 5860 5861 5862 5863 5864 5864 5865 5866 5867 5868 5868 5869 5869 5870 5870 5871 5871 5871 5872 5872 5873 5874 5874 5875 5875 5875 5876 5876 5876 5877 5878 5879 5880 5880 5881 5883 5885 5885 5886 5888 5890 5891 5892 5893 5892 5892 5894 5895 5895 5895 5895 5896 5896 5897 5897 5898 5898 5898 5898 5898 5897 5896 5895 5894